When you browse on this site, cookies collect data to enhance your experience and personalize the content and advertising you see.
Visit our Privacy Policy to learn more. By continuing to use the site, you agree to this use of cookies and data.
  • In Netherlands
  • List of Countries
  • For 7 days
  • Water Temperature
  • Satellite Maps
  • Weather Map
  • Weather Widgets
  • user-avatar
    Login

    Hourly Weather Sadovyy

    Today, 24 April, Wednesday

    Time Temperature Precipitation Wind Pressure Humidity
    00:00 +7°C° 0 mm 3 mps 758 mmHg 53%
    01:00 +7°C° 0 mm 3 mps 758 mmHg 56%
    02:00 +5°C° 0 mm 3 mps 758 mmHg 59%
    03:00 +5°C° 0 mm 3 mps 758 mmHg 62%
    04:00 +5°C° 0 mm 3 mps 758 mmHg 63%
    05:00 +5°C° 0 mm 3 mps 758 mmHg 63%
    06:00 +5°C° 0 mm 3 mps 758 mmHg 64%
    07:00 +9°C° 0 mm 3 mps 758 mmHg 59%
    08:00 +11°C° 0 mm 3 mps 757 mmHg 54%
    09:00 +14°C° 0 mm 4 mps 757 mmHg 49%
    10:00 +15°C° 0 mm 4 mps 757 mmHg 45%
    11:00 +17°C° 0 mm 4 mps 757 mmHg 41%
    12:00 +19°C° 0 mm 4 mps 756 mmHg 36%
    13:00 +19°C° 0 mm 4 mps 756 mmHg 37%
    14:00 +19°C° 0 mm 3 mps 756 mmHg 38%
    15:00 +19°C° 0 mm 3 mps 756 mmHg 39%
    16:00 +18°C° 0 mm 3 mps 756 mmHg 44%
    17:00 +17°C° 0 mm 3 mps 756 mmHg 49%
    18:00 +16°C° 0 mm 2 mps 756 mmHg 54%
    19:00 +15°C° 0 mm 2 mps 756 mmHg 57%
    20:00 +14°C° 0 mm 2 mps 756 mmHg 59%
    21:00 +12°C° 0 mm 3 mps 757 mmHg 62%
    22:00 +11°C° 0 mm 3 mps 757 mmHg 63%
    23:00 +10°C° 0 mm 3 mps 757 mmHg 65%

    Tomorrow, 25 April, Thursday

    Time Temperature Precipitation Wind Pressure Humidity
    00:00 +10°C° 0 mm 4 mps 757 mmHg 67%
    01:00 +10°C° 0.2 mm 4 mps 757 mmHg 68%
    02:00 +10°C° 0.2 mm 3 mps 757 mmHg 69%
    03:00 +10°C° 0.2 mm 3 mps 757 mmHg 70%
    04:00 +10°C° 0.2 mm 3 mps 757 mmHg 73%
    05:00 +10°C° 0.2 mm 3 mps 757 mmHg 75%
    06:00 +9°C° 0.2 mm 3 mps 757 mmHg 77%
    07:00 +11°C° 0.1 mm 3 mps 757 mmHg 75%
    08:00 +12°C° 0.1 mm 3 mps 757 mmHg 72%
    09:00 +13°C° 0.1 mm 3 mps 757 mmHg 69%
    10:00 +16°C° 0.1 mm 3 mps 757 mmHg 64%
    11:00 +17°C° 0.1 mm 2 mps 757 mmHg 58%
    12:00 +18°C° 0.1 mm 2 mps 756 mmHg 53%
    13:00 +20°C° 0 mm 1 mps 756 mmHg 50%
    14:00 +20°C° 0 mm 1 mps 756 mmHg 48%
    15:00 +20°C° 0 mm 1 mps 756 mmHg 46%
    16:00 +20°C° 0 mm 1 mps 756 mmHg 50%
    17:00 +19°C° 0 mm 1 mps 756 mmHg 54%
    18:00 +19°C° 0 mm 1 mps 756 mmHg 58%
    19:00 +16°C° 0 mm 1 mps 756 mmHg 60%
    20:00 +15°C° 0 mm 1 mps 756 mmHg 63%
    21:00 +13°C° 0 mm 2 mps 757 mmHg 66%
    22:00 +13°C° 0 mm 2 mps 757 mmHg 67%
    23:00 +13°C° 0 mm 2 mps 757 mmHg 69%

    Day after tomorrow, 26 April, Friday

    Time Temperature Precipitation Wind Pressure Humidity
    00:00 +12°C° 0 mm 2 mps 756 mmHg 70%
    01:00 +12°C° 0 mm 2 mps 756 mmHg 69%
    02:00 +10°C° 0 mm 2 mps 756 mmHg 68%
    03:00 +10°C° 0 mm 2 mps 756 mmHg 67%
    04:00 +10°C° 0 mm 2 mps 756 mmHg 66%
    05:00 +11°C° 0 mm 1 mps 756 mmHg 66%
    06:00 +11°C° 0 mm 1 mps 755 mmHg 66%
    07:00 +13°C° 0 mm 1 mps 755 mmHg 60%
    08:00 +14°C° 0 mm 0 mps 755 mmHg 54%
    09:00 +17°C° 0 mm 0 mps 755 mmHg 49%
    10:00 +20°C° 0 mm 1 mps 755 mmHg 47%
    11:00 +21°C° 0 mm 1 mps 754 mmHg 45%
    12:00 +21°C° 0 mm 2 mps 754 mmHg 43%
    13:00 +21°C° 0 mm 2 mps 754 mmHg 42%
    14:00 +22°C° 0 mm 3 mps 753 mmHg 41%
    15:00 +22°C° 0 mm 3 mps 753 mmHg 40%
    16:00 +21°C° 0 mm 3 mps 753 mmHg 44%
    17:00 +20°C° 0 mm 3 mps 753 mmHg 48%
    18:00 +19°C° 0 mm 2 mps 753 mmHg 51%
    19:00 +18°C° 0 mm 3 mps 753 mmHg 54%
    20:00 +16°C° 0 mm 3 mps 753 mmHg 56%
    21:00 +14°C° 0 mm 3 mps 754 mmHg 58%
    22:00 +13°C° 0 mm 3 mps 754 mmHg 59%
    23:00 +13°C° 0 mm 2 mps 753 mmHg 61%

    27 April, Saturday

    Time Temperature Precipitation Wind Pressure Humidity
    00:00 +13°C° 0 mm 2 mps 753 mmHg 63%
    01:00 +12°C° 0 mm 2 mps 753 mmHg 63%
    02:00 +12°C° 0 mm 1 mps 753 mmHg 63%
    03:00 +11°C° 0 mm 1 mps 753 mmHg 63%
    04:00 +11°C° 0 mm 1 mps 753 mmHg 65%
    05:00 +12°C° 0 mm 1 mps 753 mmHg 67%
    06:00 +12°C° 0 mm 1 mps 752 mmHg 68%
    07:00 +14°C° 0 mm 1 mps 752 mmHg 62%
    08:00 +16°C° 0 mm 2 mps 752 mmHg 56%
    09:00 +18°C° 0 mm 2 mps 752 mmHg 51%
    10:00 +19°C° 0 mm 3 mps 751 mmHg 47%
    11:00 +21°C° 0 mm 3 mps 751 mmHg 43%
    12:00 +22°C° 0 mm 4 mps 751 mmHg 39%
    13:00 +22°C° 0 mm 4 mps 750 mmHg 38%
    14:00 +23°C° 0 mm 4 mps 750 mmHg 38%
    15:00 +23°C° 0 mm 5 mps 749 mmHg 37%
    16:00 +22°C° 0 mm 5 mps 749 mmHg 42%
    17:00 +20°C° 0 mm 4 mps 749 mmHg 47%
    18:00 +19°C° 0 mm 4 mps 749 mmHg 51%
    19:00 +17°C° 0 mm 4 mps 750 mmHg 53%
    20:00 +14°C° 0 mm 3 mps 750 mmHg 55%
    21:00 +12°C° 0 mm 3 mps 750 mmHg 57%
    22:00 +12°C° 0 mm 2 mps 750 mmHg 61%
    23:00 +10°C° 0 mm 2 mps 750 mmHg 65%

    28 April, Sunday

    Time Temperature Precipitation Wind Pressure Humidity
    00:00 +11°C° 0 mm 1 mps 749 mmHg 69%
    01:00 +10°C° 0 mm 1 mps 749 mmHg 72%
    02:00 +10°C° 0 mm 1 mps 749 mmHg 76%
    03:00 +9°C° 0 mm 1 mps 749 mmHg 79%
    04:00 +10°C° 0 mm 1 mps 749 mmHg 80%
    05:00 +10°C° 0 mm 1 mps 749 mmHg 80%
    06:00 +10°C° 0 mm 1 mps 748 mmHg 80%
    07:00 +12°C° 0 mm 1 mps 748 mmHg 71%
    08:00 +14°C° 0 mm 1 mps 748 mmHg 62%
    09:00 +17°C° 0 mm 2 mps 748 mmHg 54%
    10:00 +18°C° 0 mm 2 mps 748 mmHg 50%
    11:00 +20°C° 0 mm 2 mps 747 mmHg 46%
    12:00 +21°C° 0 mm 2 mps 747 mmHg 42%
    13:00 +23°C° 0 mm 2 mps 747 mmHg 40%
    14:00 +24°C° 0 mm 2 mps 747 mmHg 39%
    15:00 +24°C° 0 mm 2 mps 747 mmHg 38%
    16:00 +23°C° 0 mm 2 mps 747 mmHg 42%
    17:00 +21°C° 0 mm 2 mps 747 mmHg 46%
    18:00 +21°C° 0 mm 2 mps 747 mmHg 49%
    19:00 +20°C° 0.1 mm 1 mps 747 mmHg 52%
    20:00 +18°C° 0.1 mm 1 mps 748 mmHg 54%
    21:00 +15°C° 0.1 mm 1 mps 748 mmHg 56%
    22:00 +15°C° 0 mm 1 mps 748 mmHg 58%
    23:00 +14°C° 0 mm 1 mps 748 mmHg 61%

    29 April, Monday

    Time Temperature Precipitation Wind Pressure Humidity
    00:00 +14°C° 0 mm 1 mps 748 mmHg 64%
    01:00 +14°C° 0 mm 1 mps 748 mmHg 67%
    02:00 +13°C° 0 mm 1 mps 748 mmHg 71%
    03:00 +13°C° 0 mm 1 mps 748 mmHg 75%
    04:00 +13°C° 0 mm 1 mps 748 mmHg 76%
    05:00 +13°C° 0 mm 1 mps 748 mmHg 77%
    06:00 +14°C° 0 mm 1 mps 748 mmHg 77%
    07:00 +16°C° 0 mm 1 mps 748 mmHg 70%
    08:00 +19°C° 0 mm 1 mps 748 mmHg 62%
    09:00 +21°C° 0 mm 1 mps 748 mmHg 55%
    10:00 +23°C° 0 mm 1 mps 748 mmHg 50%
    11:00 +24°C° 0 mm 1 mps 748 mmHg 45%
    12:00 +26°C° 0 mm 1 mps 748 mmHg 40%
    13:00 +26°C° 0 mm 1 mps 747 mmHg 39%
    14:00 +26°C° 0 mm 1 mps 747 mmHg 39%
    15:00 +26°C° 0 mm 2 mps 747 mmHg 38%
    16:00 +25°C° 0 mm 2 mps 747 mmHg 43%
    17:00 +24°C° 0 mm 2 mps 747 mmHg 48%
    18:00 +23°C° 0 mm 2 mps 747 mmHg 53%
    19:00 +22°C° 0.1 mm 1 mps 748 mmHg 55%
    20:00 +21°C° 0.1 mm 1 mps 748 mmHg 58%
    21:00 +19°C° 0.1 mm 1 mps 748 mmHg 61%
    22:00 +18°C° 0.2 mm 2 mps 748 mmHg 65%
    23:00 +17°C° 0.2 mm 3 mps 748 mmHg 69%
    Show more